• Join FlightAware (Why Join?)
  • Login
  • US Flag 
06:57AM EST


 

Airport Tracker/Info


-or-


 

Live Flight TrackerFlight Track Log ✈ DAL268 ✈ 16-Jul-2013 ✈ KSFO - KJFK

Flight Track Log - Related Links

Times and Time Zones

All times are in EDT time to prevent confusion due to time zone crossing. See the DAL268 flight status page for this flight to view local times or setup timezone preferences in your user account.

Time Position Orientation Groundspeed Altitude Reporting Facility
EDT Latitude Longitude Course Direction KTS MPH feet Rate Location/Type
02:19PM 37.6150 -122.3820 North 11 13  Level FlightAware
02:29PM 37.6070 -122.3810 322° Northwest 13 15  Level FlightAware
02:30PM 37.6100 -122.3780 38° Northeast 88 101 420 Level FlightAware
02:31PM 37.6310 -122.3650 26° Northeast 171 197 600 1,440 Climbing FlightAware
02:31PM 37.6366 -122.3610 29° Northeast 172 198 1,000 3,240 Climbing FlightAware ADS-B
02:31PM 37.6393 -122.3580 41° Northeast 175 201 1,200 2,520 Climbing FlightAware ADS-B
02:31PM 37.6411 -122.3560 41° Northeast 177 204 1,300 1,620 Climbing FlightAware ADS-B
02:31PM 37.6501 -122.3440 47° Northeast 195 224 1,700 1,800 Climbing FlightAware ADS-B
02:31PM 37.6616 -122.3290 46° Northeast 205 236 2,300 1,740 Climbing FlightAware ADS-B
02:32PM 37.6737 -122.3130 46° Northeast 240 276 2,700 1,680 Climbing FlightAware ADS-B
02:32PM 37.6926 -122.2890 45° Northeast 267 307 3,400 2,100 Climbing FlightAware ADS-B
02:32PM 37.7034 -122.2780 39° Northeast 273 314 3,900 2,880 Climbing FlightAware ADS-B
02:33PM 37.7197 -122.2620 38° Northeast 274 315 4,700 3,000 Climbing FlightAware ADS-B
02:33PM 37.7623 -122.2200 38° Northeast 286 329 6,800 3,000 Climbing FlightAware ADS-B
02:34PM 37.7887 -122.1940 38° Northeast 294 338 8,000 3,000 Climbing FlightAware ADS-B
02:34PM 37.8072 -122.1760 38° Northeast 296 341 8,900 3,060 Climbing FlightAware ADS-B
02:34PM 37.8246 -122.1590 38° Northeast 299 344 9,700 2,160 Climbing FlightAware ADS-B
02:35PM 37.8598 -122.1250 37° Northeast 327 376 10,600 1,260 Climbing FlightAware ADS-B
02:35PM 37.8992 -122.0870 37° Northeast 367 422 11,000 1,140 Climbing FlightAware ADS-B
02:36PM 37.9421 -122.0450 38° Northeast 391 450 11,800 1,920 Climbing FlightAware ADS-B
02:37PM 38.0414 -121.9480 38° Northeast 408 470 14,200 2,160 Climbing FlightAware ADS-B
02:37PM 38.1000 -121.8910 37° Northeast 424 488 15,600 2,040 Climbing FlightAware
02:38PM 38.1720 -121.8200 38° Northeast 436 502 17,100 1,980 Climbing FlightAware
02:39PM 38.2370 -121.7560 38° Northeast 446 513 18,500 1,920 Climbing FlightAware
02:40PM 38.2990 -121.6940 38° Northeast 456 525 19,600 1,800 Climbing FlightAware
02:40PM 38.3770 -121.6180 37° Northeast 463 533 21,000 1,800 Climbing FlightAware
02:41PM 38.4460 -121.5420 41° Northeast 468 539 22,300 1,500 Climbing FlightAware
02:42PM 38.5060 -121.4480 51° Northeast 482 555 23,200 1,380 Climbing FlightAware
02:42PM 38.5610 -121.3520 54° Northeast 489 563 24,300 1,500 Climbing FlightAware
02:43PM 38.6100 -121.2670 54° Northeast 496 571 25,200 1,500 Climbing FlightAware
02:44PM 38.6650 -121.1710 54° Northeast 503 579 26,200 1,320 Climbing FlightAware
02:44PM 38.7260 -121.0660 53° Northeast 510 587 27,100 1,200 Climbing FlightAware
02:45PM 38.7770 -120.9780 53° Northeast 517 595 27,800 1,140 Climbing FlightAware
02:46PM 38.8350 -120.8770 54° Northeast 522 601 28,600 1,440 Climbing FlightAware
02:46PM 38.8940 -120.7740 54° Northeast 519 597 29,800 1,680 Climbing FlightAware
02:47PM 38.9490 -120.6790 53° Northeast 516 594 30,900 1,440 Climbing FlightAware
02:48PM 39.0020 -120.5880 53° Northeast 517 595 31,700 1,260 Climbing FlightAware
02:49PM 39.0740 -120.4630 53° Northeast 519 597 32,800 1,080 Climbing FlightAware
02:49PM 39.1330 -120.3590 54° Northeast 520 598 33,400 1,080 Climbing FlightAware
02:50PM 39.1920 -120.2570 53° Northeast 518 596 34,300 1,080 Climbing FlightAware
02:50PM 39.2410 -120.1700 54° Northeast 520 598 34,800 960 Climbing FlightAware
02:51PM 39.3040 -120.0590 54° Northeast 518 596 35,600 1,080 Climbing FlightAware
02:52PM 39.3540 -119.9700 54° Northeast 515 593 36,300 1,020 Climbing FlightAware
02:52PM 39.4110 -119.8710 53° Northeast 515 593 36,900 420 Climbing FlightAware
02:53PM 39.4720 -119.7610 54° Northeast 513 590 36,900  Level FlightAware
02:54PM 39.5280 -119.6620 54° Northeast 512 589 36,900  Level FlightAware
02:55PM 39.5870 -119.5560 54° Northeast 514 592 36,900  Level FlightAware
02:55PM 39.6440 -119.4540 54° Northeast 512 589 36,900  Level FlightAware
02:56PM 39.7050 -119.3440 54° Northeast 510 587 36,900  Level FlightAware
02:57PM 39.7580 -119.2490 54° Northeast 509 586 36,900  Level FlightAware
02:57PM 39.8100 -119.1550 54° Northeast 506 582 36,900  Level FlightAware
02:58PM 39.8640 -119.0560 55° Northeast 510 587 36,900  Level FlightAware
02:59PM 39.9210 -118.9520 54° Northeast 508 585 36,900  Level FlightAware
02:59PM 39.9800 -118.8450 54° Northeast 509 586 36,900  Level FlightAware
03:00PM 40.0380 -118.7380 55° Northeast 507 583 36,900  Level FlightAware
03:01PM 40.0960 -118.6320 54° Northeast 507 583 36,900  Level FlightAware
03:01PM 40.1390 -118.5250 62° Northeast 500 575 36,900  Level FlightAware
03:02PM 40.1730 -118.4050 70° East 501 577 36,900  Level FlightAware
03:03PM 40.2050 -118.2880 70° East 501 577 36,900  Level FlightAware
03:04PM 40.2390 -118.1620 70° East 501 577 36,900  Level FlightAware
03:04PM 40.2710 -118.0470 70° East 501 577 36,900  Level FlightAware
03:05PM 40.3070 -117.9410 66° East 504 580 36,900  Level FlightAware
03:06PM 40.3360 -117.8550 66° East 504 580 36,900  Level FlightAware
03:06PM 40.3740 -117.7410 66° East 504 580 36,900  Level FlightAware
03:07PM 40.4030 -117.6550 66° East 504 580 36,900  Level FlightAware
03:08PM 40.4430 -117.5390 66° East 504 580 36,900  Level FlightAware
03:08PM 40.4720 -117.4530 66° East 504 580 36,900  Level FlightAware
03:09PM 40.5230 -117.3030 66° East 504 580 36,900  Level FlightAware
03:10PM 40.5400 -117.2510 67° East 504 580 36,900  Level FlightAware
03:11PM 40.6080 -117.0500 66° East 504 580 36,900  Level FlightAware
03:12PM 40.6460 -116.9380 66° East 504 580 36,900  Level FlightAware
03:13PM 40.6750 -116.8520 66° East 504 580 36,900  Level FlightAware
03:13PM 40.7020 -116.7710 66° East 504 580 36,900  Level FlightAware
03:14PM 40.7420 -116.6540 66° East 504 580 36,900  Level FlightAware
03:18PM 41.1880 -115.7570 56° Northeast 505 581 37,000  Climbing FlightAware
03:19PM 41.2270 -115.6370 67° East 507 583 37,000  Level FlightAware
03:20PM 41.2730 -115.5210 62° Northeast 510 587 37,000  Level FlightAware
03:20PM 41.3120 -115.4300 60° Northeast 509 586 37,000  Level FlightAware
03:21PM 41.3670 -115.3070 59° Northeast 509 586 37,000  Level FlightAware
03:22PM 41.4150 -115.1970 60° Northeast 507 583 37,000  Level FlightAware
03:22PM 41.4670 -115.0800 59° Northeast 505 581 37,000  Level FlightAware
03:23PM 41.5350 -114.9250 60° Northeast 504 580 37,000  Level FlightAware
03:24PM 41.5800 -114.8240 59° Northeast 503 579 37,000  Level FlightAware
03:25PM 41.6270 -114.7140 60° Northeast 502 578 37,000  Level FlightAware
03:25PM 41.6750 -114.6070 59° Northeast 502 578 37,000  Level FlightAware
03:26PM 41.7180 -114.5100 59° Northeast 502 578 37,000  Level FlightAware
03:27PM 41.7730 -114.3800 60° Northeast 502 578 37,000  Level FlightAware
03:27PM 41.8250 -114.2610 60° Northeast 502 578 37,000  Level FlightAware
03:28PM 41.8760 -114.1420 60° Northeast 504 580 37,000  Level FlightAware
03:29PM 41.9230 -114.0320 60° Northeast 506 582 37,000  Level FlightAware
03:30PM 41.9740 -113.9120 60° Northeast 507 583 37,000  Level FlightAware
03:30PM 42.0200 -113.8040 60° Northeast 507 583 37,000  Level FlightAware
03:31PM 42.0720 -113.6810 60° Northeast 507 583 37,000  Level FlightAware
03:32PM 42.1210 -113.5660 60° Northeast 509 586 37,000  Level FlightAware
03:32PM 42.1690 -113.4500 61° Northeast 509 586 37,000  Level FlightAware
03:33PM 42.2140 -113.3420 61° Northeast 509 586 37,000  Level FlightAware
03:34PM 42.2630 -113.2240 61° Northeast 508 585 37,000  Level FlightAware
03:34PM 42.3120 -113.1040 61° Northeast 507 583 37,000  Level FlightAware
03:35PM 42.3570 -112.9920 61° Northeast 507 583 37,000  Level FlightAware
03:36PM 42.4010 -112.8840 61° Northeast 507 583 37,000  Level FlightAware
03:37PM 42.4630 -112.7310 61° Northeast 506 582 37,000  Level FlightAware
03:38PM 42.5460 -112.5270 61° Northeast 505 581 37,000  Level FlightAware
03:39PM 42.6090 -112.3690 62° Northeast 503 579 37,000  Level FlightAware
03:40PM 42.6790 -112.1980 61° Northeast 503 579 37,000  Level FlightAware
03:41PM 42.7140 -112.1130 61° Northeast 503 579 37,000  Level FlightAware
03:41PM 42.7480 -112.0280 61° Northeast 503 579 37,000  Level FlightAware
03:42PM 42.8090 -111.8800 61° Northeast 503 579 37,000  Level FlightAware
03:43PM 42.8430 -111.7950 61° Northeast 503 579 37,000  Level FlightAware
03:44PM 42.8760 -111.7140 61° Northeast 503 579 37,000  Level FlightAware
03:44PM 42.9230 -111.5990 61° Northeast 503 579 37,000  Level FlightAware
03:45PM 42.9580 -111.5110 61° Northeast 503 579 37,000  Level FlightAware
03:46PM 43.0160 -111.3690 61° Northeast 503 579 37,000  Level FlightAware
03:47PM 43.0500 -111.2840 61° Northeast 503 579 37,000  Level FlightAware
03:47PM 43.0950 -111.1730 61° Northeast 503 579 37,000  Level FlightAware
03:48PM 43.1300 -111.0870 61° Northeast 503 579 37,000  Level FlightAware
03:49PM 43.1264 -110.6303 61° Northeast 504 580 37,000  Level Salt Lake Center
03:50PM 43.1622 -110.4578 74° East 497 572 37,000  Level Salt Lake Center
03:51PM 43.2028 -110.2528 75° East 500 575 37,000  Level Salt Lake Center
03:52PM 43.2403 -110.0764 74° East 503 579 37,000  Level Salt Lake Center
03:53PM 43.2811 -109.8875 73° East 508 585 37,000  Level Salt Lake Center
03:54PM 43.3197 -109.6819 75° East 501 577 37,000  Level Salt Lake Center
03:55PM 43.3533 -109.5075 75° East 496 571 37,000  Level Salt Lake Center
03:56PM 43.4003 -109.3053 72° East 498 573 37,000  Level Salt Lake Center
03:57PM 43.4397 -109.1311 73° East 497 572 37,000  Level Salt Lake Center
03:58PM 43.4850 -108.9292 73° East 496 571 37,000  Level Salt Lake Center
03:59PM 43.5222 -108.7558 73° East 493 567 37,000  Level Salt Lake Center
04:00PM 43.5597 -108.5825 73° East 494 568 37,000  Level Salt Lake Center
04:01PM 43.6036 -108.3794 73° East 495 570 37,000  Level Salt Lake Center
04:02PM 43.6417 -108.2078 73° East 490 564 37,000  Level Salt Lake Center
04:03PM 43.6839 -108.0061 74° East 489 563 37,000  Level Salt Lake Center
04:04PM 43.7197 -107.8325 74° East 491 565 37,000  Level Salt Lake Center
04:05PM 43.7597 -107.6406 74° East 491 565 37,000  Level Salt Lake Center
04:06PM 43.7958 -107.4681 74° East 490 564 37,000  Level Salt Lake Center
04:07PM 43.8361 -107.2664 74° East 488 562 37,000  Level Salt Lake Center
04:09PM 43.8714 -107.0936 74° East 487 560 37,000  Level Salt Lake Center
04:09PM 43.9053 -106.9222 75° East 484 557 37,000  Level Denver Center
04:10PM 43.9397 -106.7494 74° East 485 558 37,000  Level Denver Center
04:11PM 43.9778 -106.5492 75° East 481 554 37,000  Level Denver Center
04:13PM 44.0008 -106.3739 80° East 483 556 37,000  Level Denver Center
04:14PM 44.0039 -106.1642 89° East 485 558 37,000  Level Denver Center
04:15PM 44.0036 -105.9847 90° East 485 558 37,000  Level Denver Center
04:16PM 44.0047 -105.7761 90° East 485 558 37,000  Level Denver Center
04:17PM 44.0039 -105.5978 90° East 484 557 37,000  Level Denver Center
04:18PM 44.0042 -105.3894 90° East 483 556 37,000  Level Denver Center
04:19PM 44.0044 -105.2111 90° East 483 556 37,000  Level Denver Center
04:20PM 44.0036 -105.0339 90° East 481 554 37,000  Level Denver Center
04:21PM 44.0031 -104.8250 90° East 482 555 37,000  Level Denver Center
04:22PM 44.0011 -104.6464 91° East 482 555 37,000  Level Denver Center
04:23PM 43.9992 -104.4389 91° East 481 554 37,000  Level Denver Center
04:24PM 43.9981 -104.2658 90° East 478 550 37,000  Level Denver Center
04:25PM 43.9956 -104.0619 91° East 474 545 37,000  Level Denver Center
04:26PM 43.9939 -103.8867 91° East 474 545 37,000  Level Denver Center
04:27PM 43.9900 -103.6822 91° East 474 545 37,000  Level Denver Center
04:28PM 43.9869 -103.5078 91° East 473 544 37,000  Level Denver Center
04:29PM 43.9853 -103.3344 91° East 471 542 37,000  Level Denver Center
04:30PM 43.9811 -103.1297 92° East 473 544 37,000  Level Denver Center
04:31PM 43.9858 -102.9544 88° East 480 552 37,000  Level Denver Center
04:32PM 44.0142 -102.7569 79° East 481 554 37,000  Level Denver Center
04:33PM 44.0411 -102.5767 78° East 478 550 37,000  Level Denver Center
04:34PM 44.0650 -102.3956 80° East 478 550 37,000  Level Denver Center
04:35PM 44.0897 -102.2142 79° East 478 550 37,000  Level Denver Center
04:36PM 44.1147 -102.0336 79° East 477 549 37,000  Level Denver Center
04:37PM 44.1419 -101.8144 80° East 478 550 37,000  Level Denver Center
04:38PM 44.1656 -101.6325 80° East 479 551 37,000  Level Denver Center
04:39PM 44.1878 -101.4522 80° East 474 545 37,000  Level Denver Center
04:40PM 44.2119 -101.2714 79° East 475 547 37,000  Level Denver Center
04:41PM 44.2353 -101.0936 80° East 470 541 37,000  Level Denver Center
04:42PM 44.2508 -100.9903 78° East 472 543 37,000  Level Minneapolis Center
04:43PM 44.2742 -100.8136 79° East 469 540 37,000  Level Minneapolis Center
04:44PM 44.2967 -100.6356 80° East 468 539 37,000  Level Minneapolis Center
04:45PM 44.3172 -100.4578 81° East 467 537 37,000  Level Minneapolis Center
04:46PM 44.3436 -100.2453 80° East 466 536 37,000  Level Minneapolis Center
04:47PM 44.3650 -100.0672 80° East 467 537 37,000  Level Minneapolis Center
04:48PM 44.3861 -99.8900 80° East 466 536 37,000  Level Minneapolis Center
04:49PM 44.4067 -99.7100 81° East 469 540 37,000  Level Minneapolis Center
04:50PM 44.4281 -99.5294 81° East 472 543 37,000  Level Minneapolis Center
04:51PM 44.4531 -99.3122 81° East 474 545 37,000  Level Minneapolis Center
04:52PM 44.4719 -99.1303 82° East 475 547 37,000  Level Minneapolis Center
04:53PM 44.4928 -98.9494 81° East 474 545 37,000  Level Minneapolis Center
04:59PM 44.6050 -97.8550 81° East 478 550 37,000  Level FlightAware
05:00PM 44.6100 -97.7140 87° East 474 545 37,000  Level FlightAware
05:00PM 44.6146 -97.6179 86° East 473 544 37,000  Level FlightAware ADS-B
05:01PM 44.6194 -97.5238 86° East 472 543 37,000  Level FlightAware ADS-B
05:01PM 44.6241 -97.4309 86° East 471 542 37,000  Level FlightAware ADS-B
05:02PM 44.6297 -97.3184 86° East 471 542 37,000  Level FlightAware ADS-B
05:03PM 44.6342 -97.2244 86° East 471 542 37,000  Level FlightAware ADS-B
05:03PM 44.6388 -97.1302 86° East 471 542 37,000  Level FlightAware ADS-B
05:04PM 44.6431 -97.0381 86° East 470 541 37,000  Level FlightAware ADS-B
05:04PM 44.6477 -96.9382 86° East 470 541 37,000  Level FlightAware ADS-B
05:05PM 44.6530 -96.8320 86° East 468 539 37,000  Level FlightAware
05:06PM 44.6620 -96.6240 86° East 466 536 37,000  Level FlightAware
05:07PM 44.6670 -96.5040 87° East 466 536 37,000  Level FlightAware
05:07PM 44.6710 -96.3970 87° East 466 536 37,000  Level FlightAware
05:08PM 44.6770 -96.2650 86° East 466 536 37,000  Level FlightAware
05:08PM 44.6781 -96.2279 88° East 467 537 37,000  Level FlightAware ADS-B
05:09PM 44.6850 -96.0490 87° East 466 536 37,000  Level FlightAware
05:10PM 44.6900 -95.9080 87° East 468 539 37,000  Level FlightAware
05:10PM 44.6940 -95.7980 87° East 468 539 37,000  Level FlightAware
05:11PM 44.6950 -95.6640 89° East 466 536 37,000  Level FlightAware
05:12PM 44.6760 -95.4850 98° East 467 537 37,000  Level FlightAware
05:13PM 44.6670 -95.3640 96° East 467 537 37,000  Level FlightAware
05:14PM 44.6600 -95.2320 94° East 466 536 37,000  Level FlightAware
05:14PM 44.6540 -95.1310 95° East 466 536 37,000  Level FlightAware
05:15PM 44.6480 -95.0010 94° East 466 536 37,000  Level FlightAware
05:16PM 44.6420 -94.8770 94° East 466 536 37,000  Level FlightAware
05:16PM 44.6360 -94.7490 94° East 466 536 37,000  Level FlightAware
05:17PM 44.6290 -94.6230 94° East 465 535 37,000  Level FlightAware
05:18PM 44.6230 -94.4920 94° East 465 535 37,000  Level FlightAware
05:18PM 44.6170 -94.3720 94° East 465 535 37,000  Level FlightAware
05:19PM 44.6110 -94.2680 95° East 465 535 37,000  Level FlightAware
05:20PM 44.6050 -94.1440 94° East 465 535 37,000  Level FlightAware
05:20PM 44.5990 -94.0180 94° East 465 535 37,000  Level FlightAware
05:21PM 44.5940 -93.9100 94° East 465 535 37,000  Level FlightAware
05:22PM 44.5870 -93.7710 94° East 465 535 37,000  Level FlightAware
05:22PM 44.5820 -93.6520 93° East 463 533 37,000  Level FlightAware
05:23PM 44.5760 -93.5190 94° East 463 533 37,000  Level FlightAware
05:24PM 44.5710 -93.4000 93° East 462 532 37,000  Level FlightAware
05:24PM 44.5630 -93.2850 96° East 462 532 37,000  Level FlightAware
05:25PM 44.5540 -93.1430 95° East 462 532 37,000  Level FlightAware
05:26PM 44.5480 -93.0240 94° East 462 532 37,000  Level FlightAware
05:27PM 44.5410 -92.9010 95° East 464 534 37,000  Level FlightAware
05:27PM 44.5340 -92.7810 95° East 464 534 37,000  Level FlightAware
05:28PM 44.5280 -92.6550 94° East 464 534 37,000  Level FlightAware
05:29PM 44.5220 -92.5470 94° East 463 533 37,000  Level FlightAware
05:29PM 44.5130 -92.4030 95° East 463 533 37,000  Level FlightAware
05:33PM 44.4740 -91.8980 96° East 463 533 37,000  Level FlightAware
05:33PM 44.4570 -91.7460 99° East 462 532 37,000  Level FlightAware
05:34PM 44.4360 -91.5690 99° East 463 533 37,000  Level FlightAware
05:35PM 44.4180 -91.3920 98° East 461 531 37,000  Level FlightAware
05:36PM 44.4000 -91.2470 100° East 461 531 37,000  Level FlightAware
05:37PM 44.3790 -91.0950 101° East 462 532 37,000  Level FlightAware
05:37PM 44.3610 -90.9650 101° East 460 529 37,000  Level FlightAware
05:38PM 44.3450 -90.8510 101° East 459 528 37,000  Level FlightAware
05:39PM 44.3280 -90.7290 101° East 458 527 37,000  Level FlightAware
05:39PM 44.3140 -90.6240 101° East 457 526 37,000  Level FlightAware
05:40PM 44.2970 -90.4980 101° East 456 525 37,000  Level FlightAware
05:41PM 44.2840 -90.3950 100° East 456 525 37,000  Level FlightAware
05:41PM 44.2690 -90.2770 100° East 456 525 37,000  Level FlightAware
05:42PM 44.2530 -90.1510 100° East 456 525 37,000  Level FlightAware
05:43PM 44.2390 -90.0480 101° East 456 525 37,000  Level FlightAware
05:44PM 44.2220 -89.9190 100° East 457 526 37,000  Level FlightAware
05:44PM 44.2050 -89.7950 101° East 457 526 37,000  Level FlightAware
05:45PM 44.1880 -89.6760 101° East 456 525 37,000  Level FlightAware
05:46PM 44.1670 -89.5560 104° East 458 527 37,000  Level FlightAware
05:46PM 44.1480 -89.4510 104° East 458 527 37,000  Level FlightAware
05:47PM 44.1230 -89.3020 103° East 457 526 37,000  Level FlightAware
05:48PM 44.1080 -89.2140 103° East 457 526 37,000  Level FlightAware
05:48PM 44.0820 -89.0750 105° East 455 524 37,000  Level FlightAware
05:49PM 44.0600 -88.9470 103° East 456 525 37,000  Level FlightAware
05:50PM 44.0420 -88.8360 103° East 456 525 37,000  Level FlightAware
05:50PM 44.0360 -88.7290 94° East 460 529 37,000  Level FlightAware
05:51PM 44.0420 -88.5900 87° East 459 528 37,000  Level FlightAware
05:52PM 44.0460 -88.4720 87° East 460 529 37,000  Level FlightAware
05:53PM 44.0470 -88.3410 89° East 462 532 37,000  Level FlightAware
05:53PM 44.0470 -88.2350 90° East 463 533 37,000  Level FlightAware
05:54PM 44.0460 -88.1130 91° East 463 533 37,000  Level FlightAware
05:55PM 44.0440 -87.9960 91° East 463 533 37,000  Level FlightAware
05:55PM 44.0430 -87.8850 91° East 463 533 37,000  Level FlightAware
05:56PM 44.0420 -87.7630 91° East 465 535 37,000  Level FlightAware
05:57PM 44.0400 -87.6340 91° East 465 535 37,000  Level FlightAware
05:58PM 44.0380 -87.4720 91° East 464 534 37,000  Level FlightAware
05:58PM 44.0360 -87.3400 91° East 464 534 37,000  Level FlightAware
05:59PM 44.0340 -87.2320 91° East 465 535 37,000 60 Level FlightAware
06:00PM 44.0320 -87.0960 91° East 462 532 37,100 300 Climbing FlightAware
06:00PM 44.0300 -87.0000 92° East 460 529 37,400 540 Climbing FlightAware
06:01PM 44.0280 -86.8750 91° East 462 532 37,800 600 Climbing FlightAware
06:02PM 44.0260 -86.7510 91° East 462 532 38,300 600 Climbing FlightAware
06:02PM 44.0240 -86.6540 92° East 461 531 38,600 540 Climbing FlightAware
06:03PM 44.0210 -86.5210 92° East 459 528 39,000 180 Climbing FlightAware
06:04PM 44.0180 -86.3620 91° East 456 525 39,000  Level FlightAware
06:04PM 44.0140 -86.2470 93° East 457 526 39,000  Level FlightAware
06:05PM 44.0120 -86.1420 91° East 457 526 39,000  Level FlightAware
06:06PM 44.0090 -86.0270 92° East 457 526 39,000  Level FlightAware
06:07PM 44.0060 -85.9370 93° East 457 526 39,000  Level FlightAware
06:07PM 44.0000 -85.7350 92° East 464 534 39,000  Level FlightAware
06:08PM 43.9980 -85.6350 92° East 464 534 39,000  Level FlightAware
06:09PM 43.9950 -85.5050 92° East 464 534 39,000  Level FlightAware
06:09PM 43.9920 -85.4140 93° East 464 534 39,000  Level FlightAware
06:10PM 43.9880 -85.2650 92° East 464 534 39,000  Level FlightAware
06:11PM 43.9860 -85.1560 91° East 464 534 39,000  Level FlightAware
06:12PM 43.9830 -85.0360 92° East 464 534 39,000  Level FlightAware
06:13PM 43.9700 -84.8060 94° East 456 525 39,000  Level FlightAware
06:13PM 43.9660 -84.7000 93° East 454 522 39,000  Level FlightAware
06:14PM 43.9600 -84.5680 94° East 453 521 39,000  Level FlightAware
06:16PM 43.9510 -84.3150 93° East 452 520 39,000  Level FlightAware
06:17PM 43.9430 -84.1250 93° East 452 520 39,000  Level FlightAware
06:18PM 43.9320 -83.8990 94° East 454 522 39,000  Level FlightAware
06:19PM 43.9260 -83.7710 94° East 455 524 39,000  Level FlightAware
06:19PM 43.9200 -83.6280 93° East 455 524 39,000  Level FlightAware
06:20PM 43.9140 -83.5140 94° East 456 525 39,000  Level FlightAware
06:21PM 43.9090 -83.4150 94° East 457 526 39,000  Level FlightAware
06:21PM 43.9010 -83.2610 94° East 458 527 39,000  Level FlightAware
06:22PM 43.8970 -83.1730 94° East 459 528 39,000  Level FlightAware
06:23PM 43.8910 -83.0540 94° East 459 528 39,000  Level FlightAware
06:23PM 43.8840 -82.9280 94° East 460 529 39,000  Level FlightAware
06:24PM 43.8760 -82.7820 94° East 460 529 39,000  Level FlightAware
06:25PM 43.8700 -82.6720 94° East 460 529 39,000  Level FlightAware
06:26PM 43.8640 -82.5650 94° East 460 529 39,000  Level FlightAware
06:26PM 43.8570 -82.4490 95° East 459 528 39,000  Level FlightAware
06:27PM 43.8520 -82.3570 94° East 458 527 39,000  Level FlightAware
06:28PM 43.8410 -82.1830 95° East 458 527 39,000  Level FlightAware
06:28PM 43.8340 -82.0680 95° East 457 526 39,000  Level FlightAware
06:29PM 43.8270 -81.9500 95° East 457 526 39,000  Level FlightAware
06:30PM 43.8190 -81.8200 95° East 456 525 39,000  Level FlightAware
06:30PM 43.8110 -81.6960 95° East 455 524 39,000  Level FlightAware
06:31PM 43.8050 -81.6060 95° East 454 522 39,000  Level FlightAware
06:32PM 43.7970 -81.4810 95° East 454 522 39,000  Level FlightAware
06:32PM 43.7890 -81.3580 95° East 453 521 39,000  Level FlightAware
06:33PM 43.7780 -81.2070 96° East 454 522 39,000  Level FlightAware
06:34PM 43.7680 -81.0580 95° East 454 522 39,000  Level FlightAware
06:35PM 43.7600 -80.9500 96° East 454 522 39,000  Level FlightAware
06:36PM 43.7500 -80.8130 96° East 454 522 39,000  Level FlightAware
06:36PM 43.7420 -80.7060 96° East 454 522 39,000  Level FlightAware
06:37PM 43.7320 -80.5670 96° East 454 522 39,000  Level FlightAware
06:38PM 43.7230 -80.4510 96° East 455 524 39,000  Level FlightAware
06:39PM 43.7100 -80.2720 96° East 455 524 39,000  Level FlightAware
06:39PM 43.7000 -80.1470 96° East 456 525 39,000  Level FlightAware
06:40PM 43.6910 -80.0380 96° East 456 525 39,000  Level FlightAware
06:41PM 43.6810 -79.9110 96° East 456 525 39,000  Level FlightAware
06:41PM 43.6720 -79.7940 96° East 456 525 39,000  Level FlightAware
06:42PM 43.6630 -79.6870 97° East 457 526 39,000  Level FlightAware
06:43PM 43.6620 -79.5240 90° East 456 525 39,000  Level FlightAware
06:44PM 43.6660 -79.4160 87° East 455 524 39,000  Level FlightAware
06:44PM 43.6710 -79.2860 87° East 456 525 39,000  Level FlightAware
06:45PM 43.6750 -79.1730 87° East 458 527 39,000  Level FlightAware
06:46PM 43.6790 -79.0360 88° East 458 527 39,000  Level FlightAware
06:46PM 43.6830 -78.9150 87° East 458 527 39,000  Level FlightAware
06:47PM 43.6860 -78.8150 88° East 459 528 39,000  Level FlightAware
06:48PM 43.6900 -78.6880 87° East 458 527 39,000  Level FlightAware
06:48PM 43.6940 -78.5720 87° East 458 527 39,000  Level FlightAware
06:49PM 43.6970 -78.4440 88° East 457 526 39,000  Level FlightAware
06:50PM 43.7000 -78.3340 88° East 457 526 39,000  Level FlightAware
06:50PM 43.7030 -78.2040 88° East 457 526 39,000  Level FlightAware
06:51PM 43.7070 -78.0810 87° East 456 525 39,000  Level FlightAware
06:52PM 43.7100 -77.9580 88° East 456 525 39,000  Level FlightAware
06:53PM 43.7120 -77.8390 89° East 455 524 39,000  Level FlightAware
06:53PM 43.7150 -77.7060 88° East 455 524 39,000  Level FlightAware
06:54PM 43.7170 -77.5930 89° East 455 524 39,000  Level FlightAware
06:55PM 43.7200 -77.4710 88° East 455 524 39,000  Level FlightAware
06:55PM 43.7220 -77.3400 89° East 456 525 39,000  Level FlightAware
06:56PM 43.7240 -77.2550 88° East 457 526 39,000  Level FlightAware
06:57PM 43.7250 -77.1620 89° East 458 527 39,000  Level FlightAware
06:57PM 43.7270 -77.0400 89° East 457 526 39,000  Level FlightAware
06:58PM 43.7290 -76.8950 89° East 457 526 39,000  Level FlightAware
06:59PM 43.7240 -76.7460 93° East 462 532 39,000  Level FlightAware
07:00PM 43.6780 -76.6470 123° Southeast 470 541 39,000  Level FlightAware
07:00PM 43.6400 -76.5960 136° Southeast 471 542 39,000  Level FlightAware
07:01PM 43.5710 -76.5050 136° Southeast 472 543 39,000  Level FlightAware
07:01PM 43.5070 -76.4230 137° Southeast 471 542 39,000  Level FlightAware
07:02PM 43.4380 -76.3320 136° Southeast 472 543 39,000  Level FlightAware
07:03PM 43.3770 -76.2510 136° Southeast 471 542 39,000  Level FlightAware
07:03PM 43.3040 -76.1550 136° Southeast 470 541 39,000  Level FlightAware
07:04PM 43.2390 -76.0710 137° Southeast 469 540 39,000  Level FlightAware
07:05PM 43.1770 -75.9900 136° Southeast 468 539 39,000  Level FlightAware
07:06PM 43.1110 -75.9040 136° Southeast 467 537 39,000  Level FlightAware
07:06PM 43.0400 -75.8120 137° Southeast 466 536 39,000  Level FlightAware
07:07PM 42.9770 -75.7310 137° Southeast 467 537 39,000  Level FlightAware
07:08PM 42.9080 -75.6420 137° Southeast 466 536 39,000  Level FlightAware
07:08PM 42.8590 -75.5800 137° Southeast 466 536 39,000  Level FlightAware
07:09PM 42.7910 -75.4930 137° Southeast 467 537 39,000  Level FlightAware
07:10PM 42.7210 -75.4040 137° Southeast 467 537 39,000  Level FlightAware
07:10PM 42.6560 -75.3220 137° Southeast 466 536 39,000 -120 Level FlightAware
07:11PM 42.6180 -75.2730 136° Southeast 464 534 38,900 -840 Descending FlightAware
07:12PM 42.5310 -75.1630 137° Southeast 467 537 37,900 -1,320 Descending FlightAware
07:12PM 42.4580 -75.0720 137° Southeast 470 541 37,100 -1,200 Descending FlightAware
07:13PM 42.4000 -74.9990 137° Southeast 471 542 36,300 -900 Descending FlightAware
07:14PM 42.3331 -74.9151 137° Southeast 476 548 36,000 -780 Descending FlightAware ADS-B
07:14PM 42.2685 -74.8347 137° Southeast 475 547 35,300 -2,100 Descending FlightAware ADS-B
07:15PM 42.2135 -74.7662 137° Southeast 471 542 33,400 -4,020 Descending FlightAware ADS-B
07:16PM 42.1215 -74.6523 137° Southeast 502 578 29,300 -2,700 Descending FlightAware ADS-B
07:17PM 42.0162 -74.5223 137° Southeast 452 520 28,100 -840 Descending FlightAware ADS-B
07:17PM 41.9764 -74.4662 134° Southeast 423 487 28,000 -120 Descending FlightAware ADS-B
07:18PM 41.9560 -74.4161 119° Southeast 413 475 28,000 -360 Level FlightAware ADS-B
07:19PM 41.9380 -74.2910 101° East 404 465 27,600 -600 Descending FlightAware
07:19PM 41.9351 -74.2611 97° East 403 464 27,400 -1,620 Descending FlightAware ADS-B
07:20PM 41.9234 -74.1529 98° East 397 457 26,100 -1,800 Descending FlightAware ADS-B
07:20PM 41.9202 -74.1293 100° East 398 458 25,800 -1,680 Descending FlightAware ADS-B
07:20PM 41.9052 -74.0857 115° Southeast 397 457 25,300 -1,500 Descending FlightAware ADS-B
07:20PM 41.8936 -74.0670 130° Southeast 395 455 25,100 -1,200 Descending FlightAware ADS-B
07:21PM 41.8420 -74.0300 152° Southeast 433 498 24,400 -1,440 Descending FlightAware
07:21PM 41.8038 -74.0279 178° South 422 486 23,900 -1,680 Descending FlightAware ADS-B
07:22PM 41.7438 -74.0330 184° South 449 517 23,200 -1,440 Descending FlightAware ADS-B
07:22PM 41.6794 -74.0393 184° South 445 512 22,500 -1,440 Descending FlightAware ADS-B
07:23PM 41.6142 -74.0451 184° South 439 505 21,700 -1,560 Descending FlightAware ADS-B
07:23PM 41.5505 -74.0504 184° South 439 505 20,900 -1,500 Descending FlightAware ADS-B
07:24PM 41.4814 -74.0559 183° South 433 498 20,100 -840 Descending FlightAware ADS-B
07:24PM 41.4207 -74.0607 183° South 429 494 20,000 -120 Descending FlightAware ADS-B
07:25PM 41.3593 -74.0674 185° South 430 495 20,000  Level FlightAware ADS-B
07:25PM 41.2921 -74.0773 186° South 427 491 20,000 -240 Level FlightAware ADS-B
07:26PM 41.2296 -74.0870 187° South 428 493 19,800 -540 Descending FlightAware ADS-B
07:26PM 41.1706 -74.0962 187° South 428 493 19,500 -780 Descending FlightAware ADS-B
07:27PM 41.1027 -74.1066 187° South 419 482 19,000 -840 Descending FlightAware ADS-B
07:27PM 41.0948 -74.1077 186° South 418 481 19,000  Level FlightAware ADS-B
07:27PM 41.0441 -74.1155 187° South 411 473 19,000  Level FlightAware ADS-B
07:27PM 41.0367 -74.1166 186° South 404 465 19,000  Level FlightAware ADS-B
07:28PM 40.9838 -74.1246 187° South 371 427 19,000  Level FlightAware ADS-B
07:28PM 40.9597 -74.1278 186° South 357 411 19,000  Level FlightAware ADS-B
07:28PM 40.9449 -74.1266 176° South 355 409 19,000  Level FlightAware ADS-B
07:29PM 40.9319 -74.1233 169° South 355 409 19,000  Level FlightAware ADS-B
07:29PM 40.9288 -74.1220 162° South 355 409 19,000  Level FlightAware ADS-B
07:29PM 40.9257 -74.1206 161° South 355 409 19,000  Level FlightAware ADS-B
07:29PM 40.9160 -74.1150 156° South 354 407 19,000 -780 Level FlightAware ADS-B
07:29PM 40.9146 -74.1141 154° Southeast 354 407 18,900 -780 Descending FlightAware ADS-B
07:29PM 40.9050 -74.1057 147° Southeast 352 405 18,900 -900 Level FlightAware ADS-B
07:29PM 40.8966 -74.0956 138° Southeast 350 403 18,700 -1,500 Descending FlightAware ADS-B
07:29PM 40.8914 -74.0875 130° Southeast 347 399 18,600 -1,380 Descending FlightAware ADS-B
07:29PM 40.8879 -74.0811 126° Southeast 346 398 18,500 -1,560 Descending FlightAware ADS-B
07:30PM 40.8640 -74.0338 124° Southeast 343 395 17,800 -1,560 Descending FlightAware ADS-B
07:30PM 40.8604 -74.0264 123° Southeast 343 395 17,700 -1,800 Descending FlightAware ADS-B
07:30PM 40.8378 -73.9790 122° Southeast 344 396 16,900 -1,800 Descending FlightAware ADS-B
07:30PM 40.8345 -73.9721 122° Southeast 344 396 16,800 -1,500 Descending FlightAware ADS-B
07:31PM 40.8067 -73.9146 123° Southeast 339 390 16,000 -1,440 Descending FlightAware ADS-B
07:31PM 40.7785 -73.8570 123° Southeast 331 381 15,200 -1,500 Descending FlightAware ADS-B
07:32PM 40.7632 -73.8219 120° Southeast 329 379 14,700 -1,380 Descending FlightAware ADS-B
07:32PM 40.7549 -73.8025 119° Southeast 327 376 14,500 -1,440 Descending FlightAware ADS-B
07:32PM 40.7325 -73.7489 119° Southeast 324 373 13,700 -1,560 Descending FlightAware ADS-B
07:32PM 40.7296 -73.7420 119° Southeast 328 377 13,600 -1,440 Descending FlightAware ADS-B
07:33PM 40.6970 -73.6640 119° Southeast 323 372 12,500 -1,440 Descending FlightAware ADS-B
07:34PM 40.6722 -73.6137 123° Southeast 319 367 11,800 -600 Descending FlightAware ADS-B
07:34PM 40.6303 -73.5463 129° Southeast 320 368 11,800 -300 Level FlightAware ADS-B
07:35PM 40.6066 -73.5298 152° Southeast 318 366 11,500 -1,200 Descending FlightAware ADS-B
07:35PM 40.5896 -73.5247 167° South 315 362 11,200 -1,440 Descending FlightAware ADS-B
07:35PM 40.5705 -73.5262 183° South 312 359 10,900 -1,680 Descending FlightAware ADS-B
07:36PM 40.5276 -73.5400 194° South 311 358 10,000 -1,620 Descending FlightAware ADS-B
07:36PM 40.5185 -73.5437 197° South 311 358 9,900 -1,320 Descending FlightAware ADS-B
07:36PM 40.5090 -73.5485 201° Southwest 310 357 9,700 -1,920 Descending FlightAware ADS-B
07:36PM 40.4895 -73.5599 204° Southwest 307 353 9,200 -1,980 Descending FlightAware ADS-B
07:36PM 40.4690 -73.5729 206° Southwest 301 346 8,700 -2,160 Descending FlightAware ADS-B
07:37PM 40.4497 -73.5853 206° Southwest 294 338 8,100 -2,340 Descending FlightAware ADS-B
07:37PM 40.4146 -73.6083 207° Southwest 290 334 7,000 -2,280 Descending FlightAware ADS-B
07:37PM 40.3962 -73.6211 208° Southwest 286 329 6,400 -2,340 Descending FlightAware ADS-B
07:38PM 40.3852 -73.6317 216° Southwest 285 328 6,000 -2,100 Descending FlightAware ADS-B
07:38PM 40.3741 -73.6530 236° Southwest 279 321 5,500 -2,100 Descending FlightAware ADS-B
07:38PM 40.3711 -73.6650 252° West 276 318 5,200 -2,580 Descending FlightAware ADS-B
07:38PM 40.3705 -73.6757 266° West 274 315 4,900 -2,820 Descending FlightAware ADS-B
07:38PM 40.3716 -73.6854 278° West 273 314 4,600 -2,400 Descending FlightAware ADS-B
07:38PM 40.3732 -73.6915 289° West 267 307 4,500 -1,680 Descending FlightAware ADS-B
07:39PM 40.3870 -73.7340 293° West 263 303 3,600 -1,680 Descending FlightAware
07:39PM 40.4070 -73.7750 303° West 255 293 2,800 -1,380 Descending FlightAware
07:40PM 40.4310 -73.8060 315° West 248 285 2,300 -780 Descending FlightAware
07:40PM 40.4520 -73.8340 315° West 231 266 2,100 -360 Descending FlightAware
07:40PM 40.4578 -73.8406 319° Northwest 224 258 2,100  Level FlightAware ADS-B
07:40PM 40.4648 -73.8481 321° Northwest 218 251 2,100  Level FlightAware ADS-B
07:41PM 40.4719 -73.8539 328° Northwest 214 246 2,100 -240 Level FlightAware ADS-B
07:41PM 40.4911 -73.8626 341° North 204 235 2,000 -240 Descending FlightAware ADS-B
07:41PM 40.4954 -73.8630 356° North 200 230 2,000 -540 Level FlightAware ADS-B
07:41PM 40.5018 -73.8625 North 195 224 1,900 -540 Descending FlightAware ADS-B
07:41PM 40.5065 -73.8615 North 194 223 1,900 -240 Level FlightAware ADS-B
07:42PM 40.5430 -73.8350 29° Northeast 177 204 1,700 -300 Descending FlightAware
07:42PM 40.5540 -73.8270 29° Northeast 166 191 1,600 -780 Descending FlightAware
07:43PM 40.5690 -73.8150 31° Northeast 150 173 1,200 -1,020 Descending FlightAware
07:43PM 40.5810 -73.8060 30° Northeast 139 160 900 -960 Descending FlightAware
07:43PM 40.5940 -73.7950 33° Northeast 126 145 500 -720 Descending FlightAware
07:44PM 40.6110 -73.7820 30° Northeast 126 145 200 -540 Descending FlightAware
07:44PM 40.6250 -73.7710 31° Northeast 127 146 -480 Descending FlightAware
07:46PM 40.6420 -73.7590 28° Northeast 28 32  Level FlightAware
07:46PM 40.6430 -73.7620 294° West 33 38  Level FlightAware
07:47PM 40.6430 -73.7630 270° West 31 36  Level FlightAware